"Time","Temp","Dewpoint","Humidity","Pressure","Direction","Speed","Gust","Precip","PrecipRate"
"00:04:59","70.4","68.6","94","29.94","230","0.3","2.3","0.00","0.00"
"00:09:58","70.4","68.6","94","29.94","230","0.1","2","0.00","0.00"
"00:14:57","70.2","68.4","94","29.94","230","0.1","2.3","0.00","0.00"
"00:19:56","70.1","68.3","94","29.94","230","0.1","1.2","0.00","0.00"
"00:24:58","70","68.2","94","29.94","230","0","0","0.00","0.00"
"00:29:59","70.1","68.4","94.6","29.94","230","0","0","0.00","0.00"
"00:34:57","70.1","68.6","95","29.94","230","0","0","0.00","0.00"
"00:39:56","70.2","68.7","95","29.94","230","0","0","0.00","0.00"
"00:44:58","70.1","68.6","95","29.94","230","0","1.2","0.00","0.00"
"00:49:56","70.1","68.6","95","29.94","230","0.1","1.2","0.00","0.00"
"00:54:58","70.1","68.6","95","29.94","230","0.1","1.2","0.00","0.00"
"00:59:56","70.1","68.6","95","29.94","230","0","1.2","0.00","0.00"
"01:04:56","70","68.5","95","29.94","230","0.1","1.2","0.00","0.00"
"01:09:58","70","68.5","95","29.94","230","0.1","1.2","0.00","0.00"
"01:14:57","69.9","68.4","95","29.94","230","0","0","0.00","0.00"
"01:19:59","69.8","68.3","95","29.94","230","0","0","0.00","0.00"
"01:24:57","69.7","68.2","95","29.94","230","0","0","0.00","0.00"
"01:29:59","69.5","68","95","29.94","230","0","0","0.00","0.00"
"01:34:57","69.3","67.6","94.2","29.94","230","0","0","0.00","0.00"
"01:39:56","69.2","67.4","94","29.94","230","0","0","0.00","0.00"
"01:44:58","69","67.5","94.9","29.94","230","0","0","0.00","0.00"
"01:49:56","68.9","67.4","95","29.94","230","0","0","0.00","0.00"
"01:54:57","68.8","67.3","95","29.94","230","0","0","0.00","0.00"
"01:59:56","68.7","67.2","95","29.94","230","0.3","1.2","0.00","0.00"
"02:04:53","68.6","67.1","95","29.94","230","0.2","1.2","0.00","0.00"
"02:09:59","68.5","67","95","29.94","230","0.1","1.2","0.00","0.00"
"02:14:58","68.4","66.9","95","29.94","230","0.1","1.2","0.00","0.00"
"02:19:59","68.3","66.8","95","29.94","230","0","1.2","0.00","0.00"
"02:24:57","68.2","66.7","95","29.94","230","0","1.2","0.00","0.00"
"02:29:59","68.1","66.6","95","29.94","230","0","0","0.00","0.00"
"02:34:56","68","66.5","95","29.94","230","0","0","0.00","0.00"
"02:39:59","67.8","66.3","95","29.94","230","0","0","0.00","0.00"
"02:44:58","67.7","66.2","95","29.95","230","0.1","1.2","0.00","0.00"
"02:49:59","67.5","66","95","29.95","230","0.1","1.2","0.00","0.00"
"02:54:57","67.4","65.9","95","29.95","230","0.6","2.3","0.00","0.00"
"02:59:59","67.2","65.7","95","29.95","230","0","1.2","0.00","0.00"
"03:04:57","67","65.5","95","29.95","230","0","0","0.00","0.00"
"03:09:59","66.8","65.3","95","29.95","230","0","0","0.00","0.00"
"03:14:58","66.7","65.2","95","29.95","230","0","0","0.00","0.00"
"03:19:56","66.6","65.1","95","29.95","230","0","0","0.00","0.00"
"03:24:58","66.6","65.1","95","29.95","230","0","0","0.00","0.00"
"03:29:56","66.5","65.2","95.8","29.95","230","0","0","0.00","0.00"
"03:34:58","66.5","65.3","96","29.95","230","0","0","0.00","0.00"
"03:39:56","66.4","65.2","96","29.95","230","0","0","0.00","0.00"
"03:44:58","66.3","65.1","96","29.95","230","0","0","0.00","0.00"
"03:49:57","66.2","65","96","29.95","230","0","0","0.00","0.00"
"03:54:58","66.2","65","96","29.95","230","0","0","0.00","0.00"
"03:59:56","66.1","64.9","96","29.95","230","0","0","0.00","0.00"
"04:04:53","66.1","64.9","96","29.95","230","0","0","0.00","0.00"
"04:09:59","66","64.8","96","29.95","230","0","0","0.00","0.00"
"04:14:58","65.9","64.7","96","29.95","230","0","0","0.00","0.00"
"04:19:56","65.8","64.6","96","29.95","230","0","0","0.00","0.00"
"04:24:58","65.6","64.4","96","29.95","230","0","0","0.00","0.00"
"04:29:56","65.5","64.3","96","29.95","230","0","0","0.00","0.00"
"04:34:58","65.4","64.2","96","29.95","230","0","0","0.00","0.00"
"04:39:57","65.4","64.2","96","29.95","230","0","0","0.00","0.00"
"04:44:59","65.3","64.1","96","29.95","230","0","0","0.00","0.00"
"04:49:57","65.2","64","96","29.95","230","0","0","0.00","0.00"
"04:54:59","65.1","63.9","96","29.95","230","0","0","0.00","0.00"
"04:59:56","65","63.8","96","29.95","230","0","0","0.00","0.00"
"05:04:57","64.9","63.7","96","29.95","230","0","0","0.00","0.00"
"05:09:56","64.8","63.6","96","29.95","230","0","0","0.00","0.00"
"05:14:59","64.7","63.5","96","29.95","230","0","0","0.00","0.00"
"05:19:57","64.6","63.4","96","29.95","230","0","0","0.00","0.00"
"05:24:58","64.6","63.4","96","29.95","230","0","0","0.01","0.00"
"05:29:56","64.5","63.3","96","29.96","230","0","0","0.01","0.01"
"05:34:58","64.4","63.2","96","29.96","230","0","0","0.01","0.01"
"05:39:57","64.4","63.2","96","29.96","230","0","0","0.01","0.01"
"05:44:59","64.3","63.1","96","29.97","230","0","0","0.01","0.01"
"05:49:57","64.2","63","96","29.97","230","0","0","0.01","0.01"
"05:54:59","64.2","63","96","29.97","230","0","0","0.01","0.01"
"05:59:57","64.2","63","96","29.97","230","0","0","0.01","0.01"
"06:04:58","64.1","62.9","96","29.97","230","0","0","0.01","0.01"
"06:09:57","64","62.8","96","29.97","230","0","0","0.01","0.01"
"06:14:57","64","62.8","96","29.98","230","0","0","0.01","0.01"
"06:19:59","63.9","62.7","96","29.98","230","0","0","0.01","0.01"
"06:24:56","64","62.8","96","29.98","230","0","0","0.01","0.01"
"06:29:58","64","62.8","96","29.98","230","0","0","0.01","0.00"
"06:34:59","64","62.8","96","29.98","230","0","0","0.01","0.00"
"06:39:58","64.1","62.9","96","29.98","229","0","1.2","0.01","0.00"
"06:44:56","64.2","63","96","29.98","229","0","0","0.01","0.00"
"06:49:57","64.2","63","96","29.98","229","0","0","0.01","0.00"
"06:54:59","64.4","63.2","96.2","29.98","229","0","0","0.01","0.00"
"06:59:56","64.5","63.6","96.8","29.99","229","0","0","0.01","0.00"
"07:04:57","64.7","63.5","96","29.99","229","0","0","0.01","0.00"
"07:09:59","65","63.8","96","29.99","229","0.3","1.2","0.01","0.00"
"07:14:58","65.2","64","96","30.00","229","0.3","2.3","0.01","0.00"
"07:19:59","65.6","64.4","96","30.00","229","0.3","2.3","0.01","0.00"
"07:24:57","66","64.7","95.4","30.00","229","0.4","2.3","0.01","0.00"
"07:29:58","66.5","64.7","94.1","30.00","229","0","1.2","0.01","0.00"
"07:34:56","66.9","64.9","93.5","30.00","270","0.6","3.5","0.01","0.00"
"07:39:58","67.5","65.1","92.1","30.00","252","0.7","2.3","0.01","0.00"
"07:44:56","68","65","90.3","30.01","140","1.2","3.5","0.01","0.00"
"07:49:58","68.7","65.1","88.2","30.01","151","0.8","3.5","0.01","0.00"
"07:54:59","69.5","65.2","86.4","30.01","165","0.1","1.2","0.01","0.00"
"07:59:58","70.1","65.5","85.3","30.01","217","0","0","0.01","0.00"
"08:04:59","70.6","65.4","83.6","30.01","213","0","0","0.01","0.00"
"08:09:57","71.2","65.4","82","30.01","255","1.3","5","0.01","0.00"
"08:14:56","71.6","65.7","81.5","30.02","244","0.5","3.5","0.01","0.00"
"08:19:57","72.1","65.7","80.3","30.02","300","1.4","4","0.01","0.00"
"08:24:59","72.6","65.9","79.6","30.02","327","1.7","4","0.01","0.00"
"08:29:56","73.1","66.4","79.5","30.02","331","1.3","4","0.01","0.00"
"08:34:58","73.6","66.6","78.8","30.02","331","0.6","2.3","0.01","0.00"
"08:39:56","74.1","67.2","79.2","30.02","331","0.8","3","0.01","0.00"
"08:44:58","74.5","67","77.4","30.02","332","2.1","6","0.01","0.00"
"08:49:59","74.8","66.9","76.3","30.02","1","1.5","5","0.01","0.00"
"08:54:56","75.2","67.2","76.2","30.02","355","2.3","6","0.01","0.00"
"08:59:58","75.6","67.7","76.5","30.03","355","1.7","5","0.01","0.00"
"09:04:59","75.9","67.2","74.5","30.03","327","2.1","6","0.01","0.00"
"09:09:57","76.2","67.3","74.2","30.03","328","1.8","6","0.01","0.00"
"09:14:56","76.5","67.7","74.3","30.03","337","2","5.8","0.01","0.00"
"09:19:57","76.8","67.4","72.8","30.03","351","2.9","7","0.01","0.00"
"09:24:59","77.1","66.2","69.2","30.03","345","2.6","6.9","0.01","0.00"
"09:29:56","77.5","66","67.9","30.03","342","3.2","7","0.01","0.00"
"09:34:57","77.8","66.5","68.2","30.03","335","2.7","7","0.01","0.00"
"09:39:56","78.2","67.3","69.5","30.03","349","1.2","5","0.01","0.00"
"09:44:57","78.6","68.1","70.3","30.03","299","1.8","5","0.01","0.00"
"09:49:56","78.8","67.6","68.7","30.03","301","1.8","5","0.01","0.00"
"09:54:59","79.1","68","68.9","30.03","337","1.9","6","0.01","0.00"
"09:59:57","79.3","67.4","67.2","30.03","275","3.4","7","0.01","0.00"
"10:04:59","79.2","68.1","68.7","30.03","328","3","10.4","0.01","0.00"
"10:09:58","79.4","67.9","68","30.03","353","2.7","6.9","0.01","0.00"
"10:14:58","79.8","68.4","68.2","30.04","265","3","6","0.01","0.00"
"10:19:57","80","67.6","65.8","30.04","302","2.6","9","0.01","0.00"
"10:24:59","80.2","67.6","65.5","30.04","324","2.8","9.2","0.01","0.00"
"10:29:58","80.4","67.6","65.1","30.04","338","3.5","7","0.01","0.00"
"10:34:56","80.7","67.5","64.4","30.04","342","2.8","8.1","0.01","0.00"
"10:39:56","80.9","68.2","65.4","30.04","268","2.7","6","0.01","0.00"
"10:44:59","81","67.3","63.2","30.04","344","4.5","11.5","0.01","0.00"
"10:49:58","80.9","67.6","63.9","30.04","328","2.3","10.4","0.01","0.00"
"10:54:57","81.1","67.7","63.7","30.04","313","3","6.9","0.01","0.00"
"10:59:59","81.2","67.6","63.3","30.05","337","4","12","0.01","0.00"
"11:04:57","81.3","67.6","63.1","30.05","333","4.1","10.4","0.01","0.00"
"11:09:56","81.6","68.9","65.6","30.05","335","2.7","11","0.01","0.00"
"11:14:56","81.8","67.4","61.8","30.05","316","3.6","11.5","0.01","0.00"
"11:19:59","81.7","67.5","62.1","30.05","339","3.5","7","0.01","0.00"
"11:24:58","81.7","67.8","63","30.05","316","3.6","9.2","0.01","0.00"
"11:29:57","81.9","68.2","63.3","30.05","312","2.8","6","0.01","0.00"
"11:34:59","82","68.4","63.5","30.05","244","2.9","6","0.01","0.00"
